Uitslagen Tour van Spaen 2020 - "solo edition"


5 & 10km

# Naam M/V Tijd Tempo
1Gauthier WidartM00:17:253:26/km.
2Robbie TermeerM00:17:443:32/km.
3Christof LismontM00:17:563:34/km.
4Christophe StevensM00:18:103:37/km.
5Kristof BrounsM00:18:123:37/km.
6Ruben MoorsM00:18:373:42/km.
7Wim MeyersM00:18:473:44/km.
8Ruud PartoensM00:19:073:48/km.
9Olivier VandorenM00:19:113:49/km.
10Filip StaesM00:19:143:49/km.
11Daniel DrionM00:19:263:52/km.
12Jan JacobsM00:19:403:55/km.
13Thomas RabijnsM00:19:423:55/km.
14Hennie HermansM00:19:443:55/km.
15Thomas MerckenM00:19:453:56/km.
16August StevensM00:19:473:56/km.
17Jan JacobsM00:19:473:56/km.
18Bart MachielsM00:19:503:57/km.
19Koen RabijnsM00:19:503:57/km.
20Piet VangeelM00:19:533:57/km.
21David WiertzM00:19:553:58/km.
22Koen ThijsenM00:20:023:59/km.
23Gauthier WidartM00:20:023:59/km.
24Kristof SchroedersM00:20:274:04/km.
25RONNY BREPOELSM00:20:284:04/km.
26Vincent KwantenM00:20:304:05/km.
27Lennard VossenM00:20:364:06/km.
28Senne ScheepersM00:20:404:07/km.
29Kristof JansM00:20:444:07/km.
30Tom CoenegrachtsM00:20:474:08/km.
31Sander RosiusM00:20:494:08/km.
32Lode RaskinM00:20:584:10/km.
33Jorne HardyM00:21:084:12/km.
34Bert VertessenM00:21:134:13/km.
35Els JamaerV00:21:144:13/km.
36Aart EngelenM00:21:154:13/km.
37Jorn HuygenM00:21:224:15/km.
38Bart WoutersM00:21:254:15/km.
39Somers JamieM00:21:334:17/km.
40Wim JadoulleM00:21:364:18/km.
41Wim GielenM00:21:364:18/km.
42Andy De CeulaerM00:21:394:18/km.
43Ronny TomsinM00:21:414:19/km.
44Nathalie van OosterwijckV00:21:414:19/km.
45Kristof JackersM00:21:534:21/km.
46Stijn SomersM00:21:534:21/km.
47Pieter ResselerM00:21:544:21/km.
48Tom RosiusM00:21:584:22/km.
49Kristof JansM00:22:004:22/km.
50Kristof StassenM00:22:064:24/km.
51Jarne PeetersM00:22:074:24/km.
52Dave BeijerM00:22:094:24/km.
53Kris VandeweyerM00:22:094:24/km.
54Frederic SauberM00:22:174:26/km.
55Geert WellemansM00:22:184:26/km.
56Frederik CuvelierM00:22:214:27/km.
57Ronny VanhayM00:22:244:27/km.
58yves jansM00:22:294:28/km.
59Wim GorissenM00:22:554:33/km.
60Ianthe BauduinV00:23:014:35/km.
61Davy MerkenM00:23:064:36/km.
62Jan VranckenM00:23:064:36/km.
63Y MM00:23:084:36/km.
64Bernd VosM00:23:124:37/km.
65Gert MoermansM00:23:134:37/km.
66Johan VissersM00:23:164:38/km.
67Mierlo MierloM00:23:254:39/km.
68Dietert BriersM00:23:274:40/km.
69Dieter AertsM00:23:304:40/km.
70Linda LenaertsV00:23:334:41/km.
71Nathan BoonenM00:23:354:41/km.
72An CroughsV00:23:504:44/km.
73Robbie TermeerM00:23:594:46/km.
74Wim Van de PoelM00:24:014:46/km.
75Vincent KwantenM00:24:014:46/km.
76Peter SegersM00:24:074:48/km.
77Heleen SegersV00:24:094:48/km.
78Henri StassenM00:24:114:48/km.
79Daniel DrionM00:24:294:52/km.
80Kenny PeumansM00:24:294:52/km.
81Dagmar LiesensV00:24:334:53/km.
82Renaud CleurenM00:24:364:56/km.
83Gert CielenM00:24:374:54/km.
84Wiet BaetenM00:24:404:54/km.
85Gert ClaesenM00:24:414:54/km.
86Karel B.M00:25:255:03/km.
87Irma EverinkV00:25:555:09/km.
88Sofie CV00:26:125:13/km.
89Niels PeetersM00:26:125:13/km.
90Katrien RequiléV00:26:205:14/km.
91Nina DuboisV00:26:295:16/km.
92Melanie JamarV00:26:355:17/km.
93Wouter D´HuysM00:26:375:18/km.
94Dorien PetersV00:26:395:18/km.
95Julien RuytersM00:26:405:18/km.
96Silke GregoireV00:26:405:18/km.
97Davy StassenM00:26:545:21/km.
98Inge VerbovenV00:26:595:22/km.
99Carmen ThysenV00:27:035:23/km.
100Isabel DriesenV00:27:075:23/km.
101Ronald ColsonM00:27:115:26/km.
102Joke HellemansV00:27:145:25/km.
103Sofie VandevenneV00:27:165:25/km.
104Mark LatetM00:27:185:26/km.
105Bart MachielsM00:27:225:26/km.
106Bart MachielsM00:27:325:30/km.
107Joeri VosM00:27:345:29/km.
108Christoph MaassenM00:27:385:30/km.
109Kelly LochtV00:27:455:31/km.
110Martine GijsenV00:27:495:32/km.
111Yannick ClaesenM00:27:525:32/km.
112Huygen BertM00:27:585:34/km.
113Kristof JackersM00:28:035:35/km.
114Mathis JackersM00:28:075:35/km.
115Kristof ValkenersM00:28:185:38/km.
116femke jeurissenV00:28:185:38/km.
117Caroline GeraertsV00:28:225:38/km.
118Anouk PicartV00:28:385:42/km.
119Chris ThijsM00:28:395:42/km.
120Frank HellinxM00:28:475:43/km.
121Linsey RaymaekersV00:28:495:44/km.
122Natascha DendasV00:29:085:48/km.
123Pascal MoonsM00:29:205:50/km.
124Jolien JorissenV00:29:235:51/km.
125Joke HellemansV00:29:245:51/km.
126Mierlo MierloM00:29:375:53/km.
127Helena VerbeeckV00:29:395:54/km.
128Linda SmetsV00:29:585:57/km.
129Veerle HuygenV00:30:025:58/km.
130Jean-Marc LiesensM00:30:065:59/km.
131Neo PalmaersM00:30:226:02/km.
132Johan SchilsM00:30:416:06/km.
133Wim Van de PoelM00:30:516:08/km.
134Jarne VanroyM00:31:056:11/km.
135Jolien JorissenV00:31:216:14/km.
136Noella PoelmansV00:31:246:15/km.
137Jochen GosM00:31:306:16/km.
138karel NobenM00:31:346:17/km.
139Liesbet LoyensV00:31:566:21/km.
140Indra VandeboschV00:31:576:21/km.
141Davy NolmansM00:32:036:22/km.
142Lien HuygenV00:32:076:23/km.
143Caroline DelhougneV00:32:086:23/km.
144Martine NivellesV00:32:426:30/km.
145Stefanie TheuwisV00:32:596:33/km.
146Sanne TimmermansV00:33:306:40/km.
147Jolien SmitsV00:33:316:40/km.
148Jolien NobenV00:33:336:40/km.
149Annebel ThijsV00:33:346:40/km.
150Hanne KristofM00:33:566:45/km.
151Anne-Marie De TrochV00:33:596:45/km.
152Tamara LoverixV00:34:106:48/km.
153Ellen MachielsV00:34:126:48/km.
154Casper PetriM00:34:126:48/km.
155Michel GielenM00:34:366:53/km.
156Yanis JackersM00:34:556:57/km.
157Wilfried PoesenM00:35:427:06/km.
158Daisy FestjensV00:37:117:24/km.
159Roos ReyndersV00:39:447:54/km.
160Simon PoesenM00:40:418:05/km.
161Annick BillenV00:44:408:53/km.